Home   Weather   Siberia   Past weeks
Flag for Russia

Past Weather in Siberia, Russia — Yesterday and Last 2 Weeks

Now
66 °F

Scattered clouds.


Feels Like: 66 °F
Forecast: 66 / 53 °F
Wind: 6 mph from Southwest

Location: Bratsk / Irkutsk

Current Time: Aug 22, 2019 at 2:07:32 pm

Latest Report: Aug 22, 2019 at 1:30 pm


Visibility: N/A

Pressure: 29.92 "Hg

Humidity: 56%

Dew Point: 50 °F

Location of SiberiaLocation

Past Weather in Siberia — Graph

°F

Siberia Temperature Yesterday

Maximum temperature yesterday: 68 °F (at 12:30 pm)
Minimum temperature yesterday: 45 °F (at 4:00 am)
Average temperature yesterday: 59 °F

High & Low Weather Summary for the Past Weeks

 TemperatureHumidityPressure
High81 °F (Aug 8, 1:30 pm)100% (Aug 10, 4:00 am)30.04 "Hg (Aug 10, 4:00 am)
Low45 °F (Aug 21, 4:00 am)26% (Aug 7, 1:30 pm)29.68 "Hg (Aug 9, 11:00 pm)
Average59 °F80%29.87 "Hg
* Reported Aug 7 12:00 pm — Aug 22 12:30 pm, Siberia. Weather by CustomWeather, © 2019

Note: Actual official high and low records may vary slightly from our data, if they occured in-between our weather recording intervals... More about our weather records

Advertising

Siberia Weather History for the Previous 24 Hours

Scroll right to see more
 ConditionsComfort  
Time TempWeatherWind HumidityBarometerVisibility
12:30 pm
Thu, Aug 22
66 °FScattered clouds.6 mph68%29.92 "HgN/A
12:00 pm64 °FScattered clouds.6 mph73%29.95 "HgN/A
11:30 am63 °FScattered clouds.6 mph77%29.92 "HgN/A
11:00 am61 °FPartly sunny.6 mph83%29.95 "HgN/A
10:30 am63 °FPartly sunny.3 mph77%29.95 "HgN/A
10:00 am63 °FPartly sunny.1 mph83%29.95 "HgN/A
9:30 am63 °FPartly sunny.3 mph77%29.95 "HgN/A
9:00 am61 °FScattered clouds.3 mph83%29.95 "HgN/A
8:30 am59 °FPartly sunny.1 mph88%29.95 "HgN/A
8:00 am59 °FPartly sunny.1 mph88%29.95 "HgN/A
7:30 am57 °FPartly sunny.1 mph94%29.95 "HgN/A
7:00 am57 °FPartly sunny.1 mph94%29.95 "HgN/A
6:30 am55 °FPartly sunny.3 mph94%29.95 "HgN/A
6:00 am55 °FSprinkles. Partly sunny.3 mph100%29.95 "Hg6 mi
5:30 am55 °FSprinkles. Passing clouds.1 mph94%29.95 "Hg6 mi
5:00 am55 °FSprinkles. Passing clouds.1 mph94%29.95 "Hg6 mi
4:30 am55 °FSprinkles. Passing clouds.3 mph94%29.95 "Hg6 mi
4:00 am57 °FSprinkles. Passing clouds.3 mph88%29.95 "HgN/A
3:30 am55 °FCool.3 mph94%29.95 "HgN/A
3:00 am55 °FCool.6 mph100%29.95 "HgN/A
2:30 am57 °FCool.1 mph94%29.95 "HgN/A
2:00 am57 °FCool.3 mph94%29.95 "HgN/A
1:30 am57 °FCool.3 mph94%29.95 "HgN/A
1:00 am55 °FCool.1 mph94%29.95 "HgN/A
12:30 am55 °FCool.3 mph94%29.95 "HgN/A
12:00 am54 °FCool.1 mph94%29.95 "HgN/A
11:30 pm
Wed, Aug 21
55 °FCool.No wind82%29.95 "HgN/A
11:00 pm55 °FCool.No wind82%29.95 "HgN/A
10:30 pm57 °FClear.1 mph72%29.95 "HgN/A
10:00 pm55 °FClear.No wind82%29.95 "HgN/A
9:30 pm57 °FClear.1 mph77%29.95 "HgN/A
9:00 pm57 °FClear.No wind82%29.95 "HgN/A
8:30 pm57 °FClear.No wind88%29.95 "HgN/A
8:00 pm61 °FClear.1 mph72%29.95 "HgN/A
7:30 pm61 °FClear.No wind72%29.95 "HgN/A
7:00 pm63 °FClear.1 mph73%29.95 "HgN/A
6:30 pm63 °FClear.1 mph73%29.95 "HgN/A
6:00 pm64 °FClear.1 mph56%29.95 "HgN/A
5:30 pm64 °FClear.1 mph56%29.95 "HgN/A
5:00 pm64 °FClear.3 mph56%29.95 "HgN/A
4:30 pm66 °FClear.3 mph52%29.95 "HgN/A
4:00 pm66 °FClear.3 mph52%29.95 "HgN/A
3:30 pm66 °FClear.3 mph43%29.95 "HgN/A
3:00 pm68 °FClear.6 mph43%29.95 "HgN/A
2:30 pm66 °FClear.8 mph46%29.95 "HgN/A
2:00 pm68 °FPassing clouds.6 mph46%29.95 "HgN/A
Weather by CustomWeather, © 2019

See weather overview